This is the latest recevied weather packets stored in our database for station/object DO1SC. If no packets are shown the sender has not sent any weather packets the latest 10 day(s).
| Time | Temp. | Humidity | Pressure | Rain* | Wind** | Luminosity | Snow |
|---|---|---|---|---|---|---|---|
| 1776950131 | 15.56° C | 23% | 1024.5 hPa | - | - | 561 W/m² | - |
| 1776949525 | 15.56° C | 22% | 1024.7 hPa | - | - | 571 W/m² | - |
| 1776948934 | 16.11° C | 22% | 1024.8 hPa | - | - | 345 W/m² | - |
| 1776948326 | 15.56° C | 21% | 1024.7 hPa | - | - | 597 W/m² | - |
| 1776947717 | 15.56° C | 21% | 1024.7 hPa | - | - | 612 W/m² | - |
| 1776947129 | 15.56° C | 19% | 1024.9 hPa | - | - | 622 W/m² | - |
| 1776946520 | 15.56° C | 20% | 1024.9 hPa | - | - | 631 W/m² | - |
| 1776945932 | 15.56° C | 19% | 1025 hPa | - | - | 637 W/m² | - |
| 1776945327 | 15.56° C | 20% | 1025 hPa | - | - | 642 W/m² | - |
| 1776944736 | 15.56° C | 21% | 1025.2 hPa | - | - | 652 W/m² | - |
| 1776944127 | 15° C | 19% | 1025.2 hPa | - | - | 659 W/m² | - |
| 1776943521 | 15° C | 19% | 1025.3 hPa | - | - | 661 W/m² | - |
| 1776942930 | 15° C | 20% | 1025.4 hPa | - | - | 662 W/m² | - |
| 1776942322 | 15° C | 20% | 1025.4 hPa | - | - | 660 W/m² | - |
| 1776941737 | 14.44° C | 22% | 1025.5 hPa | - | - | 657 W/m² | - |
| 1776941125 | 13.89° C | 19% | 1025.7 hPa | - | - | 656 W/m² | - |
| 1776940517 | 13.89° C | 21% | 1025.7 hPa | - | - | 652 W/m² | - |
| 1776939942 | 13.89° C | 20% | 1025.8 hPa | - | - | 647 W/m² | - |
| 1776939320 | 13.33° C | 22% | 1025.9 hPa | - | - | 639 W/m² | - |
| 1776938732 | 13.33° C | 21% | 1026.1 hPa | - | - | 630 W/m² | - |
| 1776938126 | 13.33° C | 23% | 1026.2 hPa | - | - | 619 W/m² | - |
| 1776937535 | 12.78° C | 22% | 1026.3 hPa | - | - | 603 W/m² | - |
| 1776936926 | 12.78° C | 20% | 1026.4 hPa | - | - | 585 W/m² | - |
| 1776936318 | 12.78° C | 24% | 1026.4 hPa | - | - | 556 W/m² | - |
| 1776935730 | 12.78° C | 24% | 1026.4 hPa | - | - | 476 W/m² | - |
* Rain since midnight (hover to see other rain measurements)
** Current wind speed in m/s (hover to see current wind gust speed)